OneWeb SL0328

operational
NORAD ID: 49197 Int'l Des: 2021-083 Owner: ONEWEBN Country: UK Constellation: oneweb
LEOCIRCULARPOLARONEWEB_TYPE

关于 OneWeb SL0328

正在加载描述...

实时位置

正在加载3D地球...

即将过境

高度历史

Altitude vs Time

uPlot chart will show altitude changes over time

两行轨道根数

1 49197U 21083M 25353.44228503 .00000004 00000-0 -25161-4 0 9994
2 49197 87.8982 355.9254 0001601 90.8941 269.2371 13.13472549207307
Epoch: Dec 19, 2025 • Age: 15 hours

当前状态

高度 1220.0 km
速度 7.25 km/s
星下点 65.58°N, 112.08°W
发射日期 Sep 14, 2021
运行时间 4.2 years
类型 internet

技术详情

分类 Payload
质量 148.00 kg
干质量 140.00 kg
总质量 148.00 kg
长度 1.30 m
直径 1.00 m
跨度 5.00 m
形状 Trapezoid+2 pan
制造商 ONEWUS
平台类型 ARROW
阶段状态 In Orbit
所有者/国家 ONEWEBN/UK

大型星座

Loading constellations...